GW6569 Weather Reports


time (UTC)temp
F
wind
direction
speed
knots
gust
knots
rain 1hr
in
rain 24hr
in
rain mn
in
humidity
%
barometer
mb
20260505181014 80 225 8.7 17.4 0.00 0.00 0.00 38 1015.7
20260505180516 80 170 5.2 15.6 0.00 0.00 0.00 38 1016.0
20260505180036 80 192 7.0 14.8 0.00 0.00 0.00 39 1016.0
20260505175517 80 298 5.2 13.0 0.00 0.00 0.00 39 1016.1
20260505175013 79 159 3.5 18.2 0.00 0.00 0.00 42 1016.0
20260505174539 78 162 9.6 18.2 0.00 0.00 0.00 41 1016.0
20260505174014 79 215 6.1 15.6 0.00 0.00 0.00 41 1015.9
20260505173514 78 171 7.8 15.6 0.00 0.00 0.00 41 1016.0
20260505173039 79 223 7.0 15.6 0.00 0.00 0.00 41 1016.1
20260505172515 78 174 6.1 10.4 0.00 0.00 0.00 42 1016.0
20260505172014 78 150 6.1 15.6 0.00 0.00 0.00 42 1016.2
20260505171537 78 178 9.6 16.5 0.00 0.00 0.00 41 1016.3
20260505171013 78 196 7.8 12.2 0.00 0.00 0.00 42 1016.3
20260505170514 78 203 8.7 13.9 0.00 0.00 0.00 42 1016.4
20260505170044 78 194 7.0 14.8 0.00 0.00 0.00 43 1016.6
20260505165514 77 178 7.8 14.8 0.00 0.00 0.00 43 1016.5
20260505165012 78 212 7.0 13.9 0.00 0.00 0.00 44 1016.7
20260505164540 78 175 4.3 15.6 0.00 0.00 0.00 44 1016.7
20260505164014 77 152 9.6 15.6 0.00 0.00 0.00 44 1016.8
20260505163515 77 166 4.3 11.3 0.00 0.00 0.00 43 1016.7
20260505163041 77 160 7.8 11.3 0.00 0.00 0.00 42 1016.8
20260505162515 77 268 4.3 13.9 0.00 0.00 0.00 44 1016.8
20260505162012 77 229 5.2 12.2 0.00 0.00 0.00 45 1016.8
20260505161544 77 242 7.0 12.2 0.00 0.00 0.00 45 1016.7
20260505161019 76 200 5.2 15.6 0.00 0.00 0.00 45 1016.9
20260505160516 76 205 9.6 15.6 0.00 0.00 0.00 46 1016.8
20260505153050 75 182 6.1 13.0 0.00 0.00 0.00 47 1017.0
20260505152514 75 221 7.0 13.9 0.00 0.00 0.00 49 1016.9
20260505152015 74 254 6.1 13.9 0.00 0.00 0.00 49 1017.0
20260505151544 74 184 5.2 15.6 0.00 0.00 0.00 50 1017.1
20260505151013 74 238 7.0 15.6 0.00 0.00 0.00 50 1017.3
20260505150515 74 178 5.2 10.4 0.00 0.00 0.00 50 1017.1
20260505140516 70 240 4.3 13.0 0.00 0.00 0.00 57 1017.4
20260505125014 65 288 2.6 7.0 0.00 0.00 0.00 64 1017.4
20260505124600 64 200 3.5 8.7 0.00 0.00 0.00 65 1017.3
20260505124017 64 191 4.3 10.4 0.00 0.00 0.00 65 1017.5
20260505123518 63 205 5.2 10.4 0.00 0.00 0.00 66 1017.4
20260505123056 63 202 6.1 9.6 0.00 0.00 0.00 66 1017.5
20260505122513 63 211 5.2 9.6 0.00 0.00 0.00 67 1017.2
20260505122202 63 196 5.2 8.7 0.00 0.00 0.00 68 1017.3
20260505121546 62 232 5.2 8.7 0.00 0.00 0.00 68 1017.1
20260505121012 62 229 2.6 10.4 0.00 0.00 0.00 69 1017.3
20260505120514 62 360 3.5 10.4 0.00 0.00 0.00 70 1017.5
20260505120053 62 238 5.2 9.6 0.00 0.00 0.00 69 1017.3
20260505115512 61 218 5.2 9.6 0.00 0.00 0.00 70 1017.3
20260505115015 61 242 6.1 9.6 0.00 0.00 0.00 70 1017.1
20260505114537 61 213 21.7 8.7 0.00 0.00 0.00 71 1017.2
20260505114014 61 178 21.7 6.1 0.00 0.00 0.00 1017.2
20260505113513 60 211 21.7 10.4 0.00 0.00 0.00 73 1017.2
20260505113044 60 211 21.7 10.4 0.00 0.00 0.00 73 1017.1
20260505112513 60 237 21.7 10.4 0.00 0.00 0.00 73 1017.2
20260505112014 60 211 21.7 9.6 0.00 0.00 0.00 73 1017.2
20260505111544 60 175 21.7 9.6 0.00 0.00 0.00 73 1017.3
20260505111011 0 21.7 0.0 0.00 0.00 0.00 1017.1
20260505110514 0 21.7 0.0 0.00 0.00 0.00 1016.9
20260505102014 61 217 6.1 13.0 0.00 0.00 0.00 70 1016.5
20260505101544 60 238 7.0 13.0 0.00 0.00 0.00 70 1016.5
20260505101017 61 260 7.8 13.0 0.00 0.00 0.00 70 1016.4
20260505100517 61 229 7.8 13.0 0.00 0.00 0.00 70 1016.3
20260505100040 61 215 7.8 13.0 0.00 0.00 0.00 69 1016.3
20260505095512 61 205 7.8 13.0 0.00 0.00 0.00 69 1016.4
20260505095014 61 220 7.8 13.9 0.00 0.00 0.00 69 1016.2
20260505094538 61 227 7.8 13.9 0.00 0.00 0.00 69 1016.1
20260505094012 61 201 7.8 13.9 0.00 0.00 0.00 69 1015.9
20260505093515 61 241 7.8 13.9 0.00 0.00 0.00 69 1016.0
20260505093046 61 254 7.8 13.0 0.00 0.00 0.00 69 1015.8
20260505092516 61 218 21.7 12.2 0.00 0.00 0.00 1015.8
20260505092016 0 21.7 0.0 0.00 0.00 0.00 1016.0
20260505091543 0 21.7 0.0 0.00 0.00 0.00 1016.0
20260505091015 0 21.7 0.0 0.00 0.00 0.00 1015.9
20260505090515 0 21.7 0.0 0.00 0.00 0.00 1015.8
20260505090043 0 21.7 0.0 0.00 0.00 0.00 1015.7
20260505085515 0 21.7 0.0 0.00 0.00 0.00 1015.7
20260505085015 0 21.7 0.0 0.00 0.00 0.00 1015.9
20260505084546 0 21.7 0.0 0.00 0.00 0.00 1015.8
20260505084014 62 242 21.7 6.1 0.00 0.00 0.00 1015.9
20260505083516 62 242 21.7 6.1 0.00 0.00 0.00 1015.7
20260505083045 0 21.7 0.0 0.00 0.00 0.00 1015.8
20260505082512 0 21.7 0.0 0.00 0.00 0.00 1015.5
20260505082014 0 21.7 0.0 0.00 0.00 0.00 1015.9
20260505081547 0 21.7 0.0 0.00 0.00 0.00 1015.7
20260505081018 0 21.7 0.0 0.00 0.00 0.00 1015.6
20260505080519 0 21.7 0.0 0.00 0.00 0.00 1015.7
20260505080050 0 21.7 0.0 0.00 0.00 0.00 1015.7
20260505075520 62 217 4.3 7.8 0.00 0.00 0.00 1015.7
20260505075015 62 217 4.3 7.8 0.00 0.00 0.00 1015.6
20260505074543 62 360 4.3 9.6 0.00 0.00 0.00 65 1015.6
20260505074015 62 236 3.5 10.4 0.00 0.00 0.00 65 1015.8
20260505073516 63 205 4.3 10.4 0.00 0.00 0.00 65 1015.8
20260505073042 63 209 2.6 8.7 0.00 0.00 0.00 65 1015.7
20260505072515 63 205 5.2 11.3 0.00 0.00 0.00 64 1015.5
20260505072016 63 205 3.5 11.3 0.00 0.00 0.00 64 1015.6
20260505071550 63 180 4.3 9.6 0.00 0.00 0.00 64 1015.3
20260505071016 63 196 5.2 9.6 0.00 0.00 0.00 64 1015.5
20260505070515 63 360 3.5 12.2 0.00 0.00 0.00 64 1015.5
20260505065515 63 217 4.3 8.7 0.00 0.00 0.00 63 1015.3
20260505065015 63 196 4.3 8.7 0.00 0.00 0.00 63 1015.3
20260505064556 63 181 4.3 10.4 0.00 0.00 0.00 63 1015.4
20260505064015 63 360 2.6 13.0 0.00 0.00 0.00 63 1015.4
20260505063515 63 360 3.5 13.0 0.00 0.00 0.00 62 1015.3
20260505063052 63 360 5.2 13.0 0.00 0.00 0.00 62 1015.3
20260505062515 64 360 4.3 10.4 0.00 0.00 0.00 62 1015.5
20260505062014 64 360 4.3 13.0 0.00 0.00 0.00 62 1015.3
20260505061611 64 360 4.3 13.0 0.00 0.00 0.00 62 1015.5
20260505061017 64 360 4.3 14.8 0.00 0.00 0.00 62 1015.6
20260505060515 64 360 7.0 14.8 0.00 0.00 0.00 61 1015.4
20260505060058 64 194 5.2 12.2 0.00 0.00 0.00 61 1015.4
20260505055516 64 226 6.1 12.2 0.00 0.00 0.00 61 1015.8
20260505055014 64 178 5.2 12.2 0.00 0.00 0.00 61 1015.5
20260505054551 64 147 4.3 11.3 0.00 0.00 0.00 62 1015.8
20260505054015 64 206 6.1 11.3 0.00 0.00 0.00 61 1015.5
20260505053516 64 225 4.3 8.7 0.00 0.00 0.00 61 1015.6
20260505053046 64 201 4.3 13.0 0.00 0.00 0.00 61 1015.4
20260505052516 64 183 7.0 13.0 0.00 0.00 0.00 61 1015.8
20260505052018 64 184 4.3 10.4 0.00 0.00 0.00 61 1015.5
20260505051551 64 200 4.3 8.7 0.00 0.00 0.00 61 1015.6
20260505051016 64 186 4.3 10.4 0.00 0.00 0.00 61 1015.6
20260505050516 65 209 5.2 13.9 0.00 0.00 0.00 61 1015.6
20260505041532 65 172 6.1 13.9 0.00 0.00 0.00 61 1015.4
20260505041011 65 183 7.0 13.9 0.00 0.00 0.00 61 1015.3
20260505040510 65 203 6.1 13.0 0.00 0.00 0.00 61 1015.4
20260505040052 65 213 7.8 13.9 0.00 0.00 0.00 61 1015.3
20260505035514 66 193 6.1 13.9 0.00 0.00 0.00 61 1015.3
20260505035017 66 220 7.0 15.6 0.00 0.00 0.00 61 1015.2
20260505034540 66 215 6.1 15.6 0.00 0.00 0.00 61 1015.3
20260505034011 66 173 6.1 14.8 0.00 0.00 0.00 61 1015.2
20260505033511 66 186 3.5 16.5 0.00 0.00 0.00 61 1015.3
20260505033030 66 236 7.8 16.5 0.00 0.00 0.00 61 1015.4
20260505032513 66 190 5.2 13.0 0.00 0.00 0.00 60 1015.2
20260505032011 66 190 4.3 13.9 0.00 0.00 0.00 60 1015.5
20260505031545 66 200 7.0 13.9 0.00 0.00 0.00 61 1015.4
20260505031011 66 169 6.1 12.2 0.00 0.00 0.00 60 1015.4
20260505030511 66 180 5.2 13.9 0.00 0.00 0.00 60 1015.3
20260505030030 66 223 8.7 13.9 0.00 0.00 0.00 60 1015.3
20260505025516 67 199 5.2 13.9 0.00 0.00 0.00 61 1015.5
20260505025011 67 227 6.1 15.6 0.00 0.00 0.00 60 1015.5
20260505024534 67 179 7.0 15.6 0.00 0.00 0.00 61 1015.4
20260505024011 67 217 6.1 16.5 0.00 0.00 0.00 61 1015.3
20260505023511 67 165 9.6 16.5 0.00 0.00 0.00 61 1015.4
20260505023034 67 217 6.1 13.9 0.00 0.00 0.00 61 1015.2
20260505022512 67 182 5.2 14.8 0.00 0.00 0.00 61 1015.5
20260505022010 67 191 7.8 15.6 0.00 0.00 0.00 61 1015.3
20260505021533 67 178 7.0 15.6 0.00 0.00 0.00 61 1015.2
20260505021014 67 209 5.2 9.6 0.00 0.00 0.00 61 1015.0
20260505020511 67 198 6.1 10.4 0.00 0.00 0.00 61 1015.1
20260505020039 68 175 6.1 13.0 0.00 0.00 0.00 60 1015.1
20260505015510 68 154 7.0 15.6 0.00 0.00 0.00 61 1015.0
20260505015016 68 201 7.8 15.6 0.00 0.00 0.00 60 1015.1
20260505014541 68 190 5.2 13.9 0.00 0.00 0.00 60 1015.4
20260505014010 68 207 7.0 13.9 0.00 0.00 0.00 60 1015.1
20260505013512 68 202 8.7 13.0 0.00 0.00 0.00 60 1015.1
20260505013031 68 165 6.1 14.8 0.00 0.00 0.00 60 1015.0
20260505012512 68 194 8.7 14.8 0.00 0.00 0.00 60 1015.1
20260505012011 69 161 6.1 16.5 0.00 0.00 0.00 60 1014.9
20260505011537 69 230 7.8 20.9 0.00 0.00 0.00 59 1014.9
20260505011013 69 166 7.8 20.9 0.00 0.00 0.00 59 1014.7
20260505010510 69 149 7.8 14.8 0.00 0.00 0.00 59 1014.7
20260505010036 69 222 7.8 14.8 0.00 0.00 0.00 59 1014.6
20260505005511 69 191 7.0 13.9 0.00 0.00 0.00 59 1014.4
20260505005013 69 178 6.1 18.2 0.00 0.00 0.00 59 1014.4
20260505004542 69 200 6.1 18.2 0.00 0.00 0.00 58 1014.2
20260505004011 69 360 7.0 13.9 0.00 0.00 0.00 58 1014.3
20260505003514 70 175 7.0 13.0 0.00 0.00 0.00 58 1014.1
20260505003035 70 145 6.1 12.2 0.00 0.00 0.00 57 1014.2
20260505002510 70 360 4.3 13.9 0.00 0.00 0.00 57 1014.3
20260505002012 70 360 7.8 13.9 0.00 0.00 0.00 57 1014.1
20260505001534 70 151 7.8 15.6 0.00 0.00 0.00 56 1014.0
20260505001013 70 191 7.0 15.6 0.00 0.00 0.00 55 1014.0
20260505000513 71 169 8.7 15.6 0.00 0.00 0.00 55 1013.9
20260505000047 71 138 7.8 16.5 0.00 0.00 0.00 54 1014.0
20260504235513 71 180 7.0 16.5 0.00 0.00 0.00 53 1013.8
20260504235012 72 206 7.0 16.5 0.00 0.00 0.00 52 1013.8
20260504234536 72 228 6.1 16.5 0.00 0.00 0.00 51 1013.8
20260504234011 72 169 7.8 12.2 0.00 0.00 0.00 49 1013.7
20260504233512 73 157 5.2 12.2 0.00 0.00 0.00 46 1013.7
20260504233039 74 174 5.2 9.6 0.00 0.00 0.00 40 1013.5
20260504232513 75 214 3.5 9.6 0.00 0.00 0.00 36 1013.3
20260504232010 75 172 4.3 10.4 0.00 0.00 0.00 35 1013.2
20260504231534 75 207 5.2 10.4 0.00 0.00 0.00 35 1013.2
20260504231017 75 206 4.3 13.9 0.00 0.00 0.00 35 1013.2
20260504230512 75 210 6.1 13.9 0.00 0.00 0.00 35 1013.2
20260504230035 76 205 5.2 13.9 0.00 0.00 0.00 34 1013.4
20260504225515 76 173 7.0 13.0 0.00 0.00 0.00 34 1013.3
20260504225013 76 194 8.7 15.6 0.00 0.00 0.00 34 1013.2
20260504224531 76 234 4.3 14.8 0.00 0.00 0.00 35 1013.5
20260504224018 76 225 1.7 9.6 0.00 0.00 0.00 35 1013.4
20260504223512 76 240 5.2 12.2 0.00 0.00 0.00 34 1013.2
20260504223037 76 177 5.2 12.2 0.00 0.00 0.00 35 1013.2
20260504222513 77 173 5.2 11.3 0.00 0.00 0.00 34 1013.3
20260504222011 77 172 7.0 13.0 0.00 0.00 0.00 34 1013.3
20260504221533 77 172 5.2 13.9 0.00 0.00 0.00 34 1013.3
20260504221013 77 217 7.0 13.9 0.00 0.00 0.00 33 1013.3
20260504220510 77 245 3.5 10.4 0.00 0.00 0.00 34 1013.3
20260504220044 77 192 6.1 15.6 0.00 0.00 0.00 34 1013.3
20260504215513 77 192 7.0 15.6 0.00 0.00 0.00 33 1013.3
20260504215013 77 171 5.2 11.3 0.00 0.00 0.00 33 1013.4
20260504214539 77 223 5.2 13.9 0.00 0.00 0.00 33 1013.4
20260504214012 77 215 6.1 15.6 0.00 0.00 0.00 34 1013.5
20260504213512 77 204 3.5 14.8 0.00 0.00 0.00 33 1013.5
20260504213050 77 194 6.1 12.2 0.00 0.00 0.00 33 1013.5
20260504212511 77 185 2.6 13.0 0.00 0.00 0.00 33 1013.7
20260504212017 77 172 5.2 13.0 0.00 0.00 0.00 33 1013.5
20260504211541 77 180 3.5 11.3 0.00 0.00 0.00 33 1013.6
20260504211013 77 213 7.8 15.6 0.00 0.00 0.00 32 1013.6
20260504210512 78 188 6.1 15.6 0.00 0.00 0.00 33 1013.5
20260504210036 77 269 1.7 12.2 0.00 0.00 0.00 33 1013.7
20260504205514 77 185 5.2 12.2 0.00 0.00 0.00 34 1013.6
20260504205010 77 171 3.5 13.9 0.00 0.00 0.00 32 1013.7
20260504204541 77 184 7.0 13.9 0.00 0.00 0.00 33 1013.8
20260504204012 77 259 5.2 14.8 0.00 0.00 0.00 33 1013.7
20260504203512 77 163 7.8 15.6 0.00 0.00 0.00 32 1013.9
20260504203036 77 250 6.1 14.8 0.00 0.00 0.00 31 1013.8
20260504202513 78 204 3.5 13.0 0.00 0.00 0.00 32 1013.8
20260504202013 78 190 4.3 15.6 0.00 0.00 0.00 32 1013.9
20260504201538 77 207 4.3 15.6 0.00 0.00 0.00 33 1013.8
20260504201012 77 228 7.0 14.8 0.00 0.00 0.00 33 1013.6
20260504200512 76 266 5.2 14.8 0.00 0.00 0.00 33 1013.8
20260504200038 77 201 5.2 12.2 0.00 0.00 0.00 33 1013.8
20260504195511 76 171 7.0 12.2 0.00 0.00 0.00 34 1013.8
20260504195015 76 177 3.5 11.3 0.00 0.00 0.00 34 1014.0
20260504194536 76 184 4.3 13.0 0.00 0.00 0.00 34 1014.0
20260504194014 76 193 5.2 10.4 0.00 0.00 0.00 33 1014.0
20260504193512 76 171 3.5 13.0 0.00 0.00 0.00 34 1014.0
20260504193043 76 181 6.1 13.9 0.00 0.00 0.00 34 1014.2
20260504192514 76 209 5.2 13.9 0.00 0.00 0.00 35 1014.1
20260504192013 76 170 3.5 13.9 0.00 0.00 0.00 34 1014.3
20260504191535 76 201 5.2 13.0 0.00 0.00 0.00 34 1014.3
20260504191014 76 213 6.1 13.0 0.00 0.00 0.00 34 1014.1
20260504190516 76 193 3.5 16.5 0.00 0.00 0.00 34 1014.6
20260504190035 76 221 6.1 9.6 0.00 0.00 0.00 35 1014.6
20260504185515 76 160 2.6 13.9 0.00 0.00 0.00 35 1014.4
20260504185016 75 147 4.3 13.9 0.00 0.00 0.00 35 1014.7
20260504184533 76 141 6.1 13.9 0.00 0.00 0.00 34 1014.7
20260504184017 76 160 2.6 10.4 0.00 0.00 0.00 36 1014.7
20260504183513 75 195 4.3 11.3 0.00 0.00 0.00 36 1015.0
20260504183030 75 170 7.0 11.3 0.00 0.00 0.00 36 1015.1
20260504182513 75 234 3.5 11.3 0.00 0.00 0.00 37 1015.3
20260504182016 74 176 4.3 13.9 0.00 0.00 0.00 36 1015.2